[TLELIST] Archives

 

[TLELIST] Current TLEs

June 30th 2026 PDT

0 HST 1 20580U 90037B 26179.87800082 .00006406 00000-0 20097-3 0 9999 2 20580 28.4733 0.6674 0001411 286.0347 74.0094 15.30881351790368 0 ISS (ZARYA) 1 25544U 98067A 26180.50883825 .00005660 00000-0 10902-3 0 9998 2 25544 51.6320 239.0980 0004278 246.9974 113.0563 15.49477794573665 0 CXO 1 25867U 99040B 26182.60009460 .00000698 00000-0 00000-0 0 9997 2 25867 56.3386 116.3110 7812275 310.0948 0.4515 0.37794011 17376 ...Continue Reading

[TLELIST] Current TLEs

June 29th 2026 PDT

0 HST 1 20580U 90037B 26179.87800082 .00006406 00000-0 20097-3 0 9999 2 20580 28.4733 0.6674 0001411 286.0347 74.0094 15.30881351790368 0 ISS (ZARYA) 1 25544U 98067A 26179.67039743 .00005693 00000-0 10963-3 0 9999 2 25544 51.6320 243.2491 0004268 243.5322 116.5229 15.49468267573536 0 CXO 1 25867U 99040B 26182.60009460 .00000698 00000-0 00000-0 0 9997 2 25867 56.3386 116.3110 7812275 310.0948 0.4515 0.37794011 17376 ...Continue Reading

[TLELIST] Current TLEs

June 28th 2026 PDT

0 HST 1 20580U 90037B 26179.22609707 .00006378 00000-0 20010-3 0 9992 2 20580 28.4733 5.1239 0001407 278.1768 81.8668 15.30873546790268 0 ISS (ZARYA) 1 25544U 98067A 26179.15443113 .00005845 00000-0 11238-3 0 9997 2 25544 51.6320 245.8034 0004257 241.1666 118.8896 15.49462531573454 0 CXO 1 25867U 99040B 26179.95532601 .00000592 00000-0 00000-0 0 9992 2 25867 56.3077 116.3625 7815439 310.1470 0.3486 0.37796038 17366 ...Continue Reading

[TLELIST] Current TLEs

June 27th 2026 PDT

0 HST 1 20580U 90037B 26178.24823549 .00007152 00000-0 22534-3 0 9999 2 20580 28.4733 11.8084 0001399 264.2756 95.7680 15.30861955790116 0 ISS (ZARYA) 1 25544U 98067A 26178.25148564 .00007401 00000-0 14016-3 0 9996 2 25544 51.6322 250.2737 0004284 237.3448 122.7128 15.49452150573314 0 CXO 1 25867U 99040B 26179.95532601 .00000592 00000-0 00000-0 0 9992 2 25867 56.3077 116.3625 7815439 310.1470 0.3486 0.37796038 17366 ...Continue Reading

[TLELIST] Current TLEs

June 26th 2026 PDT

0 HST 1 20580U 90037B 26177.27036609 .00007290 00000-0 22994-3 0 9997 2 20580 28.4732 18.4928 0001404 251.2839 108.7605 15.30848043789966 0 ISS (ZARYA) 1 25544U 98067A 26177.15504249 .00009461 00000-0 17697-3 0 9996 2 25544 51.6325 255.7018 0004359 233.1468 126.9121 15.49434804573144 0 CXO 1 25867U 99040B 26179.95532601 .00000592 00000-0 00000-0 0 9992 2 25867 56.3077 116.3625 7815439 310.1470 0.3486 0.37796038 17366 ...Continue Reading

[TLELIST] Current TLEs

June 25th 2026 PDT

0 HST 1 20580U 90037B 26175.96652655 .00007148 00000-0 22544-3 0 9999 2 20580 28.4728 27.4055 0001442 233.5980 126.4483 15.30829347789769 0 ISS (ZARYA) 1 25544U 98067A 26176.18758125 .00009470 00000-0 17725-3 0 9994 2 25544 51.6326 260.4913 0004409 228.8642 131.1966 15.49415960572992 0 CXO 1 25867U 99040B 26177.31113606 .00000484 00000-0 00000-0 0 9990 2 25867 56.2784 116.4107 7818645 310.1913 0.3296 0.37800874 17352 ...Continue Reading

[TLELIST] Current TLEs

June 24th 2026 PDT

0 HST 1 20580U 90037B 26174.98863599 .00006014 00000-0 18861-3 0 9999 2 20580 28.4728 34.0889 0001455 220.4821 139.5667 15.30816101789618 0 ISS (ZARYA) 1 25544U 98067A 26175.15560926 .00007363 00000-0 13975-3 0 9992 2 25544 51.6326 265.6000 0004427 224.4953 135.5681 15.49396189572839 0 CXO 1 25867U 99040B 26177.31113606 .00000484 00000-0 00000-0 0 9990 2 25867 56.2784 116.4107 7818645 310.1913 0.3296 0.37800874 17352 ...Continue Reading

[TLELIST] Current TLEs

June 23rd 2026 PDT

0 HST 1 20580U 90037B 26173.68477009 .00005473 00000-0 17108-3 0 9993 2 20580 28.4724 43.0006 0001526 203.6425 156.4101 15.30802244789419 0 ISS (ZARYA) 1 25544U 98067A 26173.73662978 .00008151 00000-0 15395-3 0 9998 2 25544 51.6325 272.6245 0004456 218.9710 141.0958 15.49373286572616 0 CXO 1 25867U 99040B 26174.66694589 .00000425 00000-0 00000-0 0 9994 2 25867 56.2626 116.4520 7822537 310.2350 0.3190 0.37805674 17342 ...Continue Reading

[TLELIST] Current TLEs

June 22nd 2026 PDT

0 HST 1 20580U 90037B 26171.07700591 .00005529 00000-0 17304-3 0 9999 2 20580 28.4722 60.8244 0001640 173.2571 186.8048 15.30775367789017 0 ISS (ZARYA) 1 25544U 98067A 26172.76913116 .00009060 00000-0 17028-3 0 9998 2 25544 51.6326 277.4139 0004499 214.6152 145.4544 15.49357580572463 0 CXO 1 25867U 99040B 26172.02247085 .00000453 00000-0 00000-0 0 9998 2 25867 56.2474 116.4966 7828330 310.2765 0.2930 0.37807394 17335 ...Continue Reading

[TLELIST] Current TLEs

June 21st 2026 PDT

0 HST 1 20580U 90037B 26171.07700591 .00005529 00000-0 17304-3 0 9999 2 20580 28.4722 60.8244 0001640 173.2571 186.8048 15.30775367789017 0 ISS (ZARYA) 1 25544U 98067A 26171.41461525 .00008813 00000-0 16600-3 0 9991 2 25544 51.6327 284.1189 0004557 208.5194 151.5545 15.49333088572250 0 CXO 1 25867U 99040B 26172.02247085 .00000453 00000-0 00000-0 0 9998 2 25867 56.2474 116.4966 7828330 310.2765 0.2930 0.37807394 17335 ...Continue Reading
  • This mailing list is a public mailing list - anyone may join or leave, at any time.
  • This mailing list is announce-only.

International Space Station (ISS) / Hubble Space Telescope (HST) / Chandra X-Ray Observatory Orbital Data via EMAIL

Privacy Policy:

Private list